Regional Weather Roundup
Issued by NWS

Home | Current Version | Previous Version | Graphics & Text | Print | Product List | Glossary On
Versions: 1 2 3 4 5 6 7 8 9 10 11 12 13 14 15 16 17 18 19 20 21 22 23 24 25 26 27 28 29 30 31 32 33 34 35 36 37 38 39 40 41 42 43 44 45 46 47 48 49 50
000
ASUS45 KCYS 051510
RWRWY

WYOMING REGIONAL WEATHER ROUNDUP
NATIONAL WEATHER SERVICE CHEYENNE WY
900 AM MDT SUN JUL 05 2015

NOTE:  "FAIR" INDICATES FEW OR NO CLOUDS BELOW 12,000 FEET
WITH NO SIGNIFICANT WEATHER AND/OR OBSTRUCTIONS TO VISIBILITY.

WYZ001-051600-
YELLOWSTONE NATIONAL PARK

CITY           SKY/WX    TMP DP  RH WIND       PRES   REMARKS
LK YELLOWSTONE   N/A     62  45  53 VRB3      30.21R
W YELLOWSTONE  NOT AVBL

$$
WYZ002>013-054>058-071-098>099-051600-
NORTHERN WYOMING

CITY           SKY/WX    TMP DP  RH WIND       PRES   REMARKS
JACKSON        FAIR      70  48  46 SW13      30.11S
CODY           CLOUDY    61  50  67 N20G28    30.07S
GREYBULL       FAIR      70  54  56 NW26      29.90R
WORLAND        FAIR      72  56  57 NW17G23   29.95R
SHERIDAN       CLOUDY    61  53  75 NW21G32   30.04R
BUFFALO        CLOUDY    59  55  87 NW35G48   30.00R
GILLETTE       FAIR      70  59  68 N21G35    29.93R
HULETT         FAIR      75  61  60 NE8       29.91R
NEWCASTLE      FAIR      77  55  47 CALM      29.87R

$$
WYZ014>020-022>026-101>103-051600-
CENTRAL WYOMING

CITY           SKY/WX    TMP DP  RH WIND       PRES   REMARKS
BIG PINEY      CLOUDY    64  44  48 CALM      30.17S
PINEDALE       PTSUNNY   61  43  51 E5        30.18S
DUBOIS         FAIR      63  39  42 NW9       30.12R
LANDER         FAIR      76  47  35 CALM      29.98R
RIVERTON       PTSUNNY   72  49  44 N15       29.99R
CASPER         FAIR      77  49  37 SW18G29   29.95S
DOUGLAS        FAIR      79  54  41 VRB5      29.92S

$$
WYZ021-027>030-104>119-051600-
SOUTHERN WYOMING

CITY           SKY/WX    TMP DP  RH WIND       PRES   REMARKS
EVANSTON       CLOUDY    62  56  80 CALM      30.21S
KEMMERER       LGT RAIN  59  54  82 W21G32    30.22R
FORT BRIDGER   CLOUDY    64  55  72 W12G17    30.22S
ROCK SPRINGS   CLOUDY    68  50  52 W20       30.15R
DIXON          CLOUDY    67  53  61 S8        30.22S
RAWLINS        FAIR      69  52  54 S16       30.14R
SARATOGA       PTSUNNY   72  50  46 W9        30.18S
LARAMIE        FAIR      73  48  41 SW16G22   30.14F
CHEYENNE       FAIR      80  49  33 W24G32    30.03S
TORRINGTON     FAIR      74  57  55 CALM      29.88S
PINE BLUFFS    FAIR      79  50  36 SW8       29.98S

$$


USA.gov is the U.S. government's official web portal to all federal, state and local government web resources and services.